GFSGBSN_2pvu_pres_267.txt.gz
Presure
139 133 149 135 129 116 146 111 122 136 140 131 115 109 140 99 97 108 103 109 132 122 117 110 111 112 124 113 134 112 114 117 131 133 123 118 125 123 113 110 132 102 128 103 130 143 126
153 143 156 125 147 125 141 116 128 107 153 119 135 114 153 137 126 110 127 117 108 141 102 126 147 119 111 116 114 126 115 113 124 109 129 125 122 126 133 138 141 142 128 126 126 109 122
155 154 134 153 137 149 117 124 139 130 103 110 102 116 126 154 145 127 107 149 100 160 129 104 125 146 104 105 152 138 105 143 131 132 156 101 111 150 114 117 106 106 146 121 129 136 121
179 151 146 150 130 150 120 123 122 128 141 146 122 129 128 123 104 112 119 116 147 103 108 143 123 150 129 131 120 102 133 143 125 108 108 123 128 141 141 154 128 142 135 130 131 117 139
168 170 167 153 155 143 145 128 149 117 149 160 119 136 109 137 126 130 125 99 129 116 134 131 113 116 112 100 100 138 149 106 145 107 129 148 126 149 156 107 126 147 135 148 164 155 150
171 165 161 170 150 160 145 157 151 111 124 158 118 132 145 113 136 111 111 103 131 97 110 134 136 112 104 139 125 116 118 103 94 110 122 135 117 117 138 150 131 154 160 162 130 149 127
134 147 157 160 161 167 158 143 157 140 116 127 146 152 127 132 125 143 124 148 162 116 123 120 114 132 152 140 138 122 146 155 134 144 150 114 150 153 129 137 140 127 145 149 178 159 185
182 130 171 144 168 167 176 157 146 148 150 147 141 121 122 142 122 128 135 146 111 121 98 154 132 117 118 128 110 123 132 139 148 150 153 145 105 122 157 159 146 152 148 163 183 161 201
185 160 174 155 154 172 152 174 161 163 161 158 144 151 125 157 130 143 143 124 125 133 140 141 126 115 131 118 148 102 119 143 154 118 139 141 118 148 147 159 139 143 156 185 158 207 188
183 182 165 178 174 154 171 170 142 182 145 139 133 146 163 126 156 138 110 161 140 137 156 135 122 143 124 145 149 111 160 133 124 134 115 148 139 143 126 162 146 156 174 157 188 227 217
207 183 181 178 180 175 180 182 145 182 177 179 154 153 161 146 155 146 151 120 130 154 122 130 133 130 120 137 127 151 148 111 122 150 139 154 151 152 147 150 152 165 159 162 193 192 211
172 203 187 158 179 177 180 178 168 163 164 163 178 191 146 175 151 164 145 159 154 156 126 141 146 120 136 142 135 130 142 135 136 151 147 149 151 146 149 144 177 161 171 181 181 206 159
188 246 204 177 168 173 172 179 179 174 175 175 161 190 193 174 159 174 155 158 186 142 152 164 142 125 149 142 141 125 108 134 142 153 153 146 155 148 160 168 165 160 169 190 204 206 168
252 241 251 199 187 189 165 168 179 177 171 178 174 174 188 186 186 185 156 140 143 139 154 127 146 171 133 153 158 155 157 155 162 143 141 141 164 177 178 163 150 165 210 212 200 206 173
247 235 224 233 246 187 186 169 155 173 168 167 180 180 163 173 177 181 185 152 151 157 148 148 158 133 142 161 158 153 154 183 144 157 148 144 140 162 173 161 174 179 212 203 206 177 173
227 251 212 227 200 234 164 177 187 156 181 173 166 170 169 183 190 193 174 225 195 170 195 152 150 133 150 149 149 159 151 145 150 145 173 174 172 173 204 172 188 212 216 204 200 172 180
237 215 252 246 242 235 222 167 174 171 164 140 182 165 161 124 187 176 175 197 192 188 182 182 181 177 149 153 186 156 158 163 160 168 197 205 171 165 171 190 214 200 179 186 162 191 185
222 214 230 223 196 212 234 214 178 185 174 164 171 132 156 170 159 183 187 193 195 178 194 200 167 167 171 180 178 168 148 153 161 173 191 203 172 175 206 217 222 196 193 164 175 177 189
211 244 220 238 226 207 234 219 190 210 180 184 178 185 170 171 170 177 177 192 190 196 166 180 213 193 192 182 175 170 178 184 181 226 176 218 178 196 198 189 211 191 177 186 166 177 154
260 247 229 205 225 243 220 230 214 224 188 180 188 168 153 177 170 176 160 159 164 175 195 197 184 184 190 171 175 174 230 191 214 193 206 204 194 205 201 188 203 171 184 162 195 188 159
320 288 250 233 224 221 223 203 217 203 206 231 205 191 159 169 169 178 173 167 176 187 173 176 180 184 189 202 171 211 172 188 189 226 196 207 209 176 199 170 181 172 191 187 176 166 176
310 308 294 256 222 239 221 213 217 128 202 199 229 210 185 177 123 162 173 175 183 174 185 187 174 161 183 204 178 223 190 161 193 203 185 178 201 195 199 186 183 182 192 180 177 152 181
311 301 288 269 216 233 205 218 208 223 232 186 197 198 206 194 193 181 171 168 180 147 184 173 159 170 183 202 177 170 156 171 185 181 175 191 182 195 199 196 175 184 198 166 169 183 187
305 305 289 245 215 235 220 222 208 227 231 225 214 220 172 199 203 195 190 175 169 151 188 160 162 195 162 180 194 190 181 177 193 202 190 188 192 192 173 172 174 167 174 189 170 176 178
302 305 295 275 256 240 217 230 213 211 213 201 153 223 171 211 207 200 204 200 188 158 176 192 181 204 166 169 201 172 171 190 179 171 176 193 185 184 159 187 170 178 161 164 167 158 171
330 304 294 284 228 246 255 214 237 212 226 162 205 222 220 192 205 200 202 190 192 192 184 188 200 199 191 201 199 176 179 163 166 208 176 187 178 175 179 183 160 179 177 167 179 171 173
399 306 292 297 300 283 275 236 210 239 224 228 216 231 184 209 216 202 208 209 198 193 190 187 176 186 192 181 189 171 184 174 190 167 144 192 161 185 185 189 175 180 150 181 168 178 165
381 315 305 298 295 278 276 265 213 237 224 238 217 204 215 232 138 213 200 203 208 196 164 196 199 191 201 180 196 197 175 179 168 202 187 189 183 173 172 175 163 166 159 177 180 169 176
379 319 294 281 301 295 281 274 233 231 219 235 209 215 232 227 223 214 193 208 210 199 194 188 176 174 195 186 186 177 184 197 193 198 183 142 182 176 175 169 174 181 184 169 183 187 181

GFSGBSN_2pvu_pres_270.txt.gz
Presure
153 132 143 148 147 137 150 125 129 138 140 116 104 125 110 109 108 125 114 111 114 111 113 109 115 119 114 116 107 112 109 136 113 116 120 125 108 121 117 113 99 107 105 117 107 149 143
160 154 144 163 142 128 148 148 143 123 122 148 131 129 133 117 119 131 143 102 116 122 105 107 111 115 108 114 113 140 144 143 115 120 108 108 115 104 122 110 100 147 155 106 110 141 147
149 174 152 186 135 153 148 139 115 129 140 151 127 150 119 130 113 116 111 127 103 106 111 115 110 135 109 115 121 139 115 122 133 105 105 118 143 119 95 134 117 144 93 131 100 155 159
175 169 168 162 168 165 137 152 148 158 130 134 144 118 138 130 151 123 123 102 109 138 139 101 132 116 135 123 124 141 114 114 136 128 137 128 110 134 120 110 106 123 127 147 99 147 155
179 146 168 174 151 167 140 153 145 130 135 118 128 141 150 105 133 147 127 139 112 129 125 154 120 133 123 126 116 99 118 127 113 144 119 120 105 115 107 143 144 139 140 100 109 144 154
171 151 167 174 179 179 161 132 198 145 123 123 148 122 137 148 107 114 134 128 132 144 128 139 116 105 136 100 112 136 136 119 121 140 152 131 109 108 140 140 150 158 161 142 123 141 137
167 176 180 175 119 164 153 169 161 157 151 142 143 142 126 147 136 158 114 118 126 102 120 98 116 130 95 113 121 100 112 101 105 123 139 111 108 113 114 139 116 116 144 137 146 139 148
176 175 152 165 151 148 152 175 185 160 160 152 156 147 151 123 126 148 129 142 138 135 112 95 120 118 111 111 119 111 120 126 120 121 107 123 115 118 109 126 117 151 131 141 140 144 147
187 153 170 175 178 148 157 154 171 203 158 154 141 153 146 141 117 148 129 145 143 140 131 142 135 133 126 118 125 143 124 114 130 123 128 124 118 124 122 146 149 130 141 147 141 147 152
158 157 167 158 167 175 175 147 172 181 174 153 154 159 174 145 148 138 123 122 151 148 156 139 144 115 144 129 146 118 129 124 134 127 119 141 135 142 133 141 119 108 144 158 139 147 149
175 202 127 153 182 178 143 174 167 176 144 199 194 166 181 154 136 143 149 128 128 115 128 146 149 144 110 138 130 152 139 116 139 133 145 144 130 116 124 135 135 153 139 135 139 146 141
219 208 182 180 149 180 140 180 167 155 168 167 174 148 170 168 143 157 159 153 139 124 151 138 114 112 152 128 154 132 129 143 144 122 138 139 130 142 154 127 145 144 157 149 161 148 145
266 245 264 212 172 168 144 177 175 175 165 163 171 173 187 180 163 127 148 168 159 151 124 153 125 154 120 142 132 152 147 145 148 138 142 135 136 150 141 149 142 155 142 143 155 153 163
264 247 276 271 171 179 174 157 175 168 134 171 156 175 160 164 160 174 186 153 159 148 158 154 144 145 156 143 137 128 125 151 144 118 143 152 157 143 155 161 142 163 154 150 171 165 171
253 276 235 268 247 201 169 174 166 185 187 181 165 167 160 153 160 160 185 181 143 157 160 145 152 167 162 156 144 150 145 145 140 146 150 146 155 143 155 146 146 172 145 160 183 162 160
317 269 255 251 265 242 195 192 168 173 179 190 164 181 171 174 167 155 176 178 188 160 179 156 140 162 179 146 151 171 164 149 148 178 129 171 168 156 145 151 145 148 168 153 195 150 183
345 317 260 265 256 250 233 189 216 175 172 179 156 180 172 167 178 173 172 176 178 196 167 188 190 175 150 149 149 159 158 144 167 161 169 148 142 163 164 150 132 165 148 178 185 174 214
326 310 272 254 250 240 233 222 228 206 194 173 189 175 188 180 177 153 167 180 189 187 190 188 187 192 189 189 182 164 157 164 152 149 149 177 163 147 160 171 170 173 193 175 219 208 201
343 266 269 241 253 233 228 230 237 210 187 199 171 174 161 182 168 165 183 162 164 185 190 189 178 185 190 179 185 178 170 202 182 180 180 171 176 167 163 169 168 203 191 208 220 189 205
312 348 271 259 237 239 223 233 231 216 224 177 193 210 187 173 179 186 175 174 177 174 154 188 174 169 155 162 181 176 195 185 183 184 190 186 177 191 183 211 194 209 220 208 191 211 175
338 338 308 251 245 223 234 238 235 228 214 205 192 200 197 187 179 163 183 186 174 147 170 154 169 182 180 187 170 168 195 209 174 180 185 180 181 223 226 163 171 192 214 192 209 204 192
329 325 342 261 240 225 221 214 238 227 209 221 224 185 172 200 189 186 181 179 183 172 179 182 173 167 177 183 173 177 161 173 164 181 186 180 188 180 160 178 197 206 175 217 196 195 178
357 325 338 317 231 248 223 240 208 218 214 218 221 214 207 211 197 186 187 182 181 163 165 147 169 180 167 190 193 184 167 156 149 178 164 170 185 177 173 185 184 148 192 203 206 178 183
370 326 322 326 279 254 232 225 233 225 216 209 197 217 211 197 224 189 212 209 185 178 180 178 168 173 188 185 173 174 189 185 179 159 182 172 197 184 174 161 168 170 184 193 179 199 166
373 389 319 325 309 274 245 208 245 228 208 217 200 210 218 217 215 221 210 206 206 200 177 183 174 173 179 155 178 204 209 193 188 184 174 175 168 189 170 180 171 190 197 187 185 188 175
375 380 312 319 321 276 252 219 215 225 206 224 220 210 215 202 171 222 210 212 202 203 208 206 179 185 188 189 188 181 190 214 202 212 191 196 190 192 181 179 166 180 177 195 198 187 189
448 399 337 319 312 293 260 221 213 217 218 206 206 223 222 213 210 208 205 218 200 214 202 211 195 208 208 204 202 207 184 205 204 182 193 190 183 191 176 191 188 178 174 198 194 183 181
388 371 320 305 296 307 291 261 227 213 209 215 216 207 220 130 200 220 193 204 195 196 211 204 209 201 203 202 204 160 195 203 198 202 194 181 200 188 196 174 181 179 186 189 182 188 195
423 385 312 306 293 296 296 279 257 212 209 213 225 166 198 195 217 185 198 210 215 197 199 193 206 207 206 202 204 197 197 198 203 200 189 196 188 193 182 189 182 190 164 196 198 197 187

GFSGBSN_2pvu_pres_273.txt.gz
Presure
153 153 155 161 145 113 147 134 114 125 112 130 140 102 118 102 108 113 109 107 109 118 104 115 116 127 112 126 129 121 119 115 114 118 108 124 151 117 136 110 132 125 138 129 144 98 104
169 167 156 161 152 147 133 143 109 135 118 132 102 130 142 133 141 108 121 134 105 125 111 111 111 114 111 110 110 107 110 118 108 111 144 109 113 122 128 112 103 95 124 95 108 141 126
176 170 165 154 164 153 159 138 114 143 109 133 115 140 114 142 135 103 133 105 140 108 103 121 126 105 112 116 114 111 114 113 112 142 116 110 143 103 117 139 103 110 91 116 111 159 135
176 170 156 161 158 158 149 149 162 148 131 127 147 117 132 143 118 148 117 99 105 117 106 98 107 111 108 104 112 153 119 113 128 145 103 128 133 142 108 134 138 125 108 119 132 96 127
178 163 161 172 169 183 155 177 154 156 154 116 147 133 137 133 129 127 143 111 118 121 114 142 149 131 123 107 118 104 123 129 126 110 102 118 120 137 111 110 117 133 159 124 121 111 128
176 181 165 168 160 163 151 160 104 150 160 155 140 132 118 151 126 122 133 119 147 131 138 120 113 135 108 130 137 120 138 120 111 145 108 123 150 103 146 146 116 129 110 114 126 123 111
176 188 173 171 181 166 188 182 166 163 147 134 157 151 132 124 122 153 130 149 130 161 121 134 130 118 124 122 132 131 137 129 100 110 114 108 104 142 131 113 118 93 123 113 99 136 126
163 144 177 181 173 176 174 166 150 174 172 157 138 148 158 141 144 145 113 148 131 131 155 115 146 142 127 137 124 119 112 133 99 102 130 115 133 114 108 109 130 141 120 137 133 128 149
182 161 168 167 138 173 170 169 169 171 180 165 172 145 147 159 160 129 139 152 133 142 120 148 116 126 148 133 132 121 126 141 124 107 127 113 125 112 128 124 118 136 115 142 137 139 135
171 186 156 139 150 185 164 171 173 179 149 174 177 171 155 130 138 155 158 125 118 130 138 136 139 132 123 123 123 113 147 135 115 149 113 128 130 134 123 120 110 139 121 110 126 138 125
283 162 155 164 151 187 155 176 128 165 163 180 163 172 161 188 164 178 148 156 147 130 151 131 144 138 148 130 121 139 125 149 125 128 120 144 133 123 137 131 139 143 118 139 135 141 144
222 278 180 190 155 170 186 168 168 184 174 174 165 173 160 178 191 157 134 153 137 132 149 135 110 145 118 115 132 114 151 135 141 139 148 145 137 120 142 142 145 147 148 142 147 143 134
310 287 252 200 177 187 163 183 176 173 170 168 177 166 160 160 148 185 133 158 156 168 156 144 151 134 125 122 121 132 152 142 121 133 90 132 129 120 127 122 143 121 149 127 138 160 169
548 504 272 257 218 201 169 171 175 184 170 176 154 172 163 171 176 169 124 198 168 146 155 157 146 152 128 132 135 133 126 97 122 147 126 119 150 126 154 132 128 153 146 152 151 156 151
463 461 473 267 252 180 203 168 164 170 173 182 168 177 150 180 154 172 177 151 190 124 159 164 169 155 148 151 149 151 152 152 157 117 143 157 129 137 144 147 144 145 165 157 145 149 154
445 442 397 413 328 271 219 186 168 164 171 127 177 160 171 177 178 167 163 168 158 176 186 179 170 156 158 154 167 153 165 141 151 125 145 149 148 153 151 143 143 143 148 143 155 146 208
427 429 453 357 403 263 263 207 185 183 165 180 162 162 142 174 182 159 160 152 169 169 182 190 175 172 144 155 162 134 142 155 167 166 157 142 137 140 159 159 157 153 160 187 154 150 147
403 388 417 385 385 376 266 224 205 203 163 173 172 139 183 131 183 184 181 160 173 167 151 175 170 180 182 179 174 166 164 157 165 142 150 150 153 154 165 163 158 149 157 156 155 169 171
380 377 428 382 376 370 277 260 261 202 188 193 185 183 174 183 167 175 182 171 152 176 177 165 165 168 176 184 151 154 152 170 173 155 158 151 156 153 161 168 154 162 167 175 192 176 207
375 390 403 372 370 350 275 273 252 238 192 177 194 192 192 187 174 184 167 189 178 177 174 164 178 182 165 168 162 179 184 172 191 190 170 169 157 179 178 187 188 179 178 166 171 167 203
367 380 396 376 346 336 281 294 248 241 237 225 205 207 196 188 189 177 183 167 157 180 181 178 172 175 165 184 180 151 165 180 168 191 194 189 174 187 164 191 168 182 175 186 172 185 183
405 382 386 352 340 332 318 308 251 245 239 245 231 233 201 190 200 205 180 169 168 166 189 175 151 185 175 169 182 168 176 119 176 174 172 163 151 171 169 158 184 156 167 167 171 189 162
408 395 419 351 333 340 309 302 240 248 232 227 240 241 231 213 206 201 181 183 182 180 175 172 168 172 179 183 169 189 192 165 175 174 162 166 176 162 174 165 171 167 151 171 167 171 174
388 412 400 323 332 341 306 291 228 241 242 230 225 235 230 216 231 198 210 188 183 179 183 189 193 184 187 154 176 166 175 162 195 185 184 174 177 174 163 166 147 162 174 171 163 174 199
396 408 388 329 324 325 300 299 237 237 226 229 234 222 225 216 215 204 206 205 165 178 199 178 179 192 217 189 185 183 171 185 185 187 184 154 174 168 165 164 224 178 184 192 152 194 172
411 384 341 348 319 335 310 295 228 264 236 217 227 226 212 217 220 218 204 197 211 211 215 178 174 189 187 196 129 171 187 179 186 187 182 155 194 182 201 182 200 221 135 209 191 147 201
422 344 339 347 325 326 275 287 286 272 249 230 225 217 225 213 211 219 216 211 215 214 216 216 204 215 208 164 156 214 213 184 184 180 182 135 188 192 196 206 170 195 186 189 156 205 193
410 377 335 341 325 332 295 288 289 261 238 239 231 213 221 211 209 215 198 213 214 208 206 202 199 200 214 220 204 177 210 207 170 190 169 201 210 202 202 187 196 197 170 184 204 201 201
375 423 376 358 375 317 292 277 277 253 234 230 233 218 215 220 210 218 215 223 221 215 216 197 206 209 210 217 225 222 210 209 213 205 203 202 194 204 202 176 195 202 189 205 204 197 186

GFSGBSN_2pvu_pres_276.txt.gz
Presure
171 178 182 171 151 163 140 135 160 118 128 118 126 109 96 121 113 114 140 106 113 119 115 113 111 120 123 116 103 118 131 133 121 110 114 109 104 109 117 131 115 119 120 125 98 140 98
172 177 181 190 152 147 166 124 154 158 144 117 131 140 109 127 130 120 122 100 132 121 103 110 119 123 112 114 118 115 116 108 119 126 139 114 157 117 130 136 118 142 132 140 98 105 134
173 172 177 168 194 197 175 155 162 154 151 121 135 110 128 120 94 125 115 109 122 111 113 115 106 118 108 114 117 114 116 114 140 116 112 112 108 143 116 140 114 120 117 140 137 100 77
178 174 174 183 188 172 185 172 167 160 151 128 152 135 137 106 117 157 121 125 133 121 115 115 122 113 113 97 131 113 111 108 108 113 147 152 120 111 104 123 114 106 152 116 81 111 113
179 176 180 170 169 178 169 169 160 148 163 158 140 140 133 132 137 132 129 136 124 103 117 127 103 122 132 125 126 109 104 114 148 124 106 113 103 116 134 118 134 100 107 111 124 115 115
178 172 182 174 142 164 173 180 178 185 148 138 159 151 139 132 129 130 113 116 113 123 155 113 141 115 111 114 115 115 111 124 129 116 125 120 123 119 124 146 105 120 122 141 122 119 117
154 178 176 178 169 174 173 169 173 184 189 152 175 159 150 144 148 116 118 136 123 122 143 146 136 118 121 131 115 103 128 146 115 132 118 120 156 148 130 100 117 112 115 126 105 120 124
185 169 182 155 174 174 171 165 166 164 168 162 158 152 158 153 145 143 126 125 141 140 120 134 148 132 136 120 119 115 123 102 121 114 123 124 121 108 124 130 136 144 120 122 126 124 136
168 157 182 173 167 175 174 178 181 173 173 173 164 160 137 160 148 149 153 138 128 133 150 118 145 157 92 126 123 113 132 116 123 130 96 126 120 122 135 139 126 121 146 133 145 143 136
189 144 169 156 187 175 172 171 168 146 181 178 172 164 165 141 187 161 138 139 153 140 143 122 127 124 127 124 139 133 152 145 109 101 141 119 147 122 138 146 134 127 118 115 125 143 126
170 175 192 169 163 157 183 180 132 173 166 164 180 172 174 182 148 156 169 151 160 143 139 141 136 131 124 150 130 144 127 142 131 125 123 109 114 120 124 120 108 138 121 141 145 126 143
253 241 216 190 183 137 140 132 148 173 153 134 171 169 165 150 179 183 160 95 148 162 148 154 145 141 128 141 126 148 138 126 117 143 132 128 132 123 124 133 145 145 130 126 133 118 136
292 212 251 189 234 176 180 164 166 182 145 178 156 165 159 163 150 160 143 174 165 169 153 155 162 145 144 143 135 126 130 135 132 129 121 141 139 148 116 121 144 90 122 121 129 140 127
283 289 239 321 428 293 196 189 173 182 154 177 180 174 172 174 137 172 174 141 183 203 191 155 157 139 141 148 156 152 131 124 123 128 125 124 129 116 124 119 125 113 114 148 131 143 142
307 357 369 364 364 373 296 274 197 170 169 188 181 179 180 176 170 168 175 177 161 160 184 197 155 153 155 141 164 152 151 147 142 143 142 147 128 126 104 131 138 132 119 141 109 142 142
345 327 436 500 512 563 387 381 381 201 180 168 182 176 133 167 182 156 170 175 164 164 169 174 186 187 189 155 173 138 182 169 141 153 150 139 143 103 136 139 151 141 143 149 153 165 147
427 472 469 476 507 521 497 429 368 324 198 167 174 190 132 161 181 188 180 165 160 157 172 166 173 176 184 181 179 183 182 158 163 127 152 149 150 166 155 154 176 172 142 140 152 153 147
451 444 445 392 461 458 425 440 416 366 215 193 176 142 155 166 196 178 183 178 175 169 165 173 167 148 172 168 175 175 192 175 204 178 156 169 147 168 139 169 170 164 156 171 155 168 169
432 427 417 444 467 426 449 437 358 352 294 224 194 182 176 142 171 159 198 165 167 172 181 181 170 174 175 174 174 177 172 159 164 176 208 149 166 150 164 155 171 160 151 141 157 158 157
411 418 425 447 408 407 400 394 392 341 325 251 250 173 192 154 169 148 172 161 152 172 178 169 184 182 179 143 179 165 173 165 178 181 184 185 188 167 167 162 161 154 143 142 175 180 172
398 408 420 405 380 397 405 382 423 341 261 257 258 219 186 167 188 160 157 162 187 178 186 178 178 177 156 170 142 177 182 179 172 162 177 174 170 161 163 169 151 150 186 175 173 173 164
381 394 399 392 401 420 354 388 380 350 322 260 242 242 229 231 186 178 179 184 169 145 175 186 180 176 179 176 177 184 156 186 182 173 168 176 168 178 182 185 180 173 171 171 182 148 145
388 405 396 388 371 403 361 371 353 329 337 263 281 246 235 200 231 190 188 182 173 183 174 174 178 182 183 183 183 187 182 182 176 168 178 180 177 174 171 170 178 183 162 181 171 161 184
375 386 397 364 367 364 351 361 336 323 302 245 250 255 232 217 213 211 203 175 193 147 178 184 132 176 167 174 140 152 174 173 162 174 134 168 168 184 154 178 165 170 174 170 177 180 143
376 391 406 368 398 340 339 344 339 319 297 252 260 253 250 221 220 228 218 268 198 216 187 184 177 184 182 185 180 182 182 179 179 179 173 156 175 168 173 163 176 178 179 174 173 175 169
368 389 409 381 347 341 354 334 320 323 294 279 283 276 243 241 242 221 214 204 209 208 195 189 188 193 176 188 186 189 198 182 190 189 194 142 137 186 189 185 152 223 192 205 180 211 218
375 371 413 406 315 311 337 310 304 324 284 284 258 264 255 228 221 227 223 213 174 206 194 220 210 190 185 195 180 212 188 199 201 214 175 185 143 184 149 166 189 174 195 155 204 212 189
390 365 406 405 361 316 316 363 303 295 317 289 270 266 262 243 221 224 220 217 214 206 192 193 186 184 187 204 210 210 212 144 206 198 145 192 157 212 179 195 210 215 196 201 188 165 205
388 378 385 409 361 319 313 335 321 302 297 286 288 275 266 234 221 226 219 236 219 231 242 221 210 199 206 207 196 205 209 196 208 216 212 187 196 201 220 218 209 156 199 197 177 196 162

GFSGBSN_2pvu_pres_279.txt.gz
Presure
171 165 157 177 176 152 154 150 139 143 113 143 158 139 140 142 118 109 112 113 122 116 106 114 123 141 130 116 127 123 109 126 109 112 130 111 119 104 119 123 113 122 155 122 123 104 104
188 193 172 160 161 175 151 140 143 131 144 120 129 123 117 126 129 107 122 116 123 108 117 123 108 112 111 137 121 124 112 119 116 128 114 113 111 110 142 118 117 132 109 119 103 121 142
152 181 167 167 167 157 160 127 147 131 140 151 126 110 122 129 121 147 130 122 111 111 104 120 117 98 114 118 113 118 118 122 112 111 112 118 114 118 101 117 133 110 128 106 116 100 127
161 156 169 181 159 179 170 177 166 168 164 151 137 144 157 134 131 123 137 141 126 115 124 115 117 132 141 101 117 107 112 110 108 119 114 114 100 109 137 115 117 122 99 117 100 128 112
170 160 157 162 183 165 168 171 163 165 178 163 173 141 132 151 124 117 132 151 147 105 105 124 114 122 103 103 121 118 116 104 138 114 113 120 107 121 124 101 133 139 104 108 114 141 131
179 178 176 157 147 158 166 165 180 168 176 168 168 170 120 159 152 135 117 123 126 145 133 133 117 127 111 126 122 118 112 112 108 113 118 114 111 124 116 113 112 129 126 115 147 139 122
163 193 184 171 163 163 155 175 180 172 182 178 171 172 169 167 153 132 131 134 134 118 131 137 132 121 118 97 132 128 126 128 129 118 145 92 124 120 129 120 122 124 97 121 103 114 127
193 180 182 192 151 185 168 163 159 170 190 194 191 180 184 169 180 151 155 139 124 136 126 123 136 114 118 110 129 117 127 125 146 117 128 129 104 115 124 117 123 130 127 138 145 149 111
200 184 169 179 178 180 189 190 173 174 171 172 194 177 195 191 179 188 174 158 160 130 144 148 118 120 139 144 136 119 140 140 152 102 113 105 110 111 105 108 112 127 132 135 141 126 117
197 189 180 172 174 177 166 174 185 178 173 168 167 194 189 190 178 185 162 179 168 154 162 148 130 121 130 126 131 125 118 141 149 137 132 134 136 137 146 133 136 126 141 125 126 129 114
178 193 188 193 176 174 174 190 147 173 198 166 172 167 173 177 201 167 169 189 183 153 170 155 150 135 131 125 125 125 125 126 85 131 131 92 115 104 73 122 147 143 114 133 129 138 143
188 188 185 172 174 169 188 177 154 180 169 184 172 175 170 165 179 174 187 179 133 201 152 165 153 150 144 138 149 128 123 121 149 126 103 133 120 116 121 142 130 122 114 106 136 138 141
213 204 181 178 147 184 166 178 200 178 172 169 165 152 166 177 165 161 172 183 184 176 164 178 155 164 149 146 146 146 154 144 128 139 90 126 126 131 137 140 135 142 141 133 122 124 125
229 229 222 213 205 186 182 172 163 165 192 174 179 174 164 156 179 165 170 168 178 177 189 183 157 164 146 152 150 158 159 150 161 145 144 126 132 125 137 131 121 123 123 124 139 137 141
261 230 238 272 240 233 217 201 154 171 153 153 186 181 154 166 156 181 165 148 158 173 172 175 157 184 181 157 159 186 148 149 151 156 161 155 151 139 142 140 145 150 123 136 136 135 140
251 253 259 240 266 271 243 219 165 188 178 178 164 159 172 178 175 176 155 172 165 178 174 166 180 185 184 180 192 170 158 145 143 143 182 138 147 168 149 150 159 163 149 169 142 129 158
256 261 257 263 243 268 279 286 276 256 249 193 171 186 169 185 173 160 185 195 186 170 172 168 166 174 168 183 168 190 168 154 139 148 160 165 180 157 149 169 130 127 157 147 141 134 147
256 266 271 274 279 278 269 292 288 245 285 197 183 180 194 161 140 206 134 189 186 153 186 178 174 169 170 169 175 177 169 179 156 186 170 199 193 180 175 167 177 165 165 156 192 180 175
266 277 285 292 296 278 368 404 365 385 505 388 357 353 265 232 173 156 197 165 121 185 153 178 175 175 169 172 169 159 179 170 179 175 172 190 196 170 193 171 156 173 175 191 169 188 158
313 321 321 318 318 307 308 398 311 315 482 467 466 417 410 341 307 192 179 180 167 120 184 178 179 164 177 174 172 168 168 169 175 145 165 175 170 164 171 164 168 172 179 151 145 179 165
280 295 370 404 412 467 476 469 489 505 472 447 426 399 394 307 314 286 173 176 144 165 176 171 164 174 186 180 172 176 175 172 188 175 171 157 169 171 172 170 158 179 181 186 177 176 179
352 402 391 386 366 372 447 474 393 387 444 376 432 393 347 320 289 293 301 197 191 162 185 147 123 177 176 180 162 156 189 180 175 172 176 169 169 172 184 182 165 190 177 156 178 155 177
377 364 354 353 352 435 438 427 412 422 371 368 366 377 279 291 286 295 262 259 232 194 156 185 183 151 196 155 186 141 179 157 184 172 176 181 184 182 172 174 179 182 179 177 185 185 181
345 343 337 424 416 421 406 395 368 375 385 372 379 339 289 276 268 273 266 241 247 248 236 194 152 154 173 171 174 136 167 179 167 153 171 169 169 183 181 177 188 187 184 150 168 145 158
325 413 416 413 384 386 405 391 392 355 341 320 389 303 296 272 299 277 257 234 273 256 224 217 192 188 145 146 176 171 174 167 193 195 192 187 173 168 189 186 177 174 172 184 187 181 169
416 420 408 396 380 401 386 397 371 344 322 327 353 293 285 274 303 255 254 238 226 252 230 246 235 175 193 183 185 177 183 179 177 185 168 173 178 168 174 182 182 185 188 193 222 199 204
423 412 401 394 395 392 381 370 331 313 315 334 277 280 275 260 265 246 232 226 229 228 218 216 216 226 193 163 185 176 165 190 187 181 183 175 171 180 186 187 174 157 184 179 186 189 186
431 415 405 378 352 414 401 332 317 310 304 289 284 265 250 253 259 259 262 245 239 234 233 228 222 214 227 224 224 196 184 186 183 179 126 173 186 184 183 186 181 183 179 165 197 142 205
424 413 407 392 401 370 378 320 309 304 332 294 269 248 238 238 237 227 225 246 215 213 230 240 241 151 227 221 211 212 222 139 144 198 200 190 227 194 190 219 226 181 230 212 203 142 193